Regional Weather Roundup
Issued by NWS

Home | Current Version | Previous Version | Text Only | Print | Product List | Glossary On
Versions: 1 2 3 4 5 6 7 8 9 10 11 12 13 14 15 16 17 18 19 20 21 22 23 24 25 26 27 28 29 30 31 32 33 34 35 36 37 38 39 40 41 42 43 44 45 46 47 48 49 50
000
ASUS44 KOUN 301310
RWROK

WEATHER ROUNDUP FOR OKLAHOMA
NATIONAL WEATHER SERVICE NORMAN OK
800 AM CDT SAT APR 30 2016

NOTE: "FAIR" INDICATES FEW OR NO CLOUDS BELOW 12,000 FEET WITH NO
      SIGNIFICANT WEATHER AND/OR OBSTRUCTIONS TO VISIBILITY.

OKZ001>007-009>012-014-015-017-301400-
NORTHWEST OKLAHOMA AND THE PANHANDLE

CITY           SKY/WX    TMP DP  RH WIND       PRES   REMARKS
GAGE           CLOUDY    42  37  82 NW10      29.83R
GUYMON         SUNNY     40  34  79 NW10      29.83R WCI  33
ENID/WOODRING  PTSUNNY   48  46  93 W14       29.77S
$$

OKZ016-021>023-033>039-044-045-301400-
SOUTHWEST OKLAHOMA

CITY           SKY/WX    TMP DP  RH WIND       PRES   REMARKS
LAWTON/REGL    MOSUNNY   52  45  77 NW12      29.82R
LAWTON/FT SILL PTSUNNY   51  46  81 N10       29.80R
FREDERICK      CLOUDY    51  46  83 N7        29.81R
CLINTON        SUNNY     45  41  86 NW8       29.84R
HOBART         SUNNY     47  43  86 N12       29.83S
ALTUS AFB      SUNNY     47  41  79 N12       29.82R
$$

OKZ018>020-024>031-301400-
CENTRAL OKLAHOMA

CITY           SKY/WX    TMP DP  RH WIND       PRES   REMARKS
OKLAHOMA CITY  MOSUNNY   50  46  86 NW13      29.78S
OKC/WILEY POST SUNNY     50  45  83 NW9       29.79R
OKC/TINKER AFB SUNNY     50  46  86 NW10      29.78R
STILLWATER     CLOUDY    50  47  89 W12G17    29.77R
GUTHRIE        MOSUNNY   50  46  86 W10       29.78R
$$

OKZ008-013-054>072-301400-
NORTHEAST OKLAHOMA

CITY           SKY/WX    TMP DP  RH WIND       PRES   REMARKS
TULSA          CLOUDY    58  55  90 W13       29.73R
TULSA/JONES    CLOUDY    58  53  84 VRB3      29.76R
PONCA CITY     CLOUDY    50  47  89 W10       29.76R
BARTLESVILLE   CLOUDY    57  53  86 VRB6      29.73R
MUSKOGEE       CLOUDY    61  59  93 W13       29.74R FOG
$$

OKZ032-040>043-046>053-073>077-301400-
SOUTH CENTRAL/SOUTHEAST OKLAHOMA

CITY           SKY/WX    TMP DP  RH WIND       PRES   REMARKS
ARDMORE/DWNTWN CLOUDY    55  52  88 N5        29.78R
MCALESTER      FOG       62  60  93 NW10      29.76R VSB 1
$$





USA.gov is the U.S. government's official web portal to all federal, state and local government web resources and services.